TDRS 3 1 19548U 88091B 21018.44657745 -.00000300 00000-0 00000-0 0 9991 2 19548 14.0560 355.5450 0039720 321.9478 272.4535 1.00268944105577 IUS R/B(1) 1 19549U 88091C 21018.39382833 -.00000054 00000-0 17028-3 0 9996 2 19549 26.3669 126.3400 6879636 55.9526 351.2571 2.76090629300621 IUS R/B(2) 1 19550U 88091D 21018.04463399 .00000122 00000-0 00000-0 0 9991 2 19550 14.4694 347.0376 0015537 265.4697 266.6417 1.00469488110251